GEFSGL_prec_meanprecacc_054.txt.gz
Total_Precipitation_Accumulation
0.50 0.47 0.44 0.38 0.35 0.34 0.33 0.32 0.27 0.29 0.34 0.37 0.44 0.48 0.49 0.54 0.67 0.84 0.91 0.89 0.87 0.84 0.83 0.90 1.01 1.05 1.10 1.05 1.00 0.88 0.76 0.73 0.70 0.62 0.45 0.25 0.23 0.24 0.22 0.14 0.07 0.05 0.04
0.52 0.51 0.47 0.37 0.33 0.33 0.31 0.28 0.24 0.24 0.26 0.30 0.37 0.42 0.46 0.47 0.49 0.58 0.68 0.70 0.69 0.71 0.71 0.73 0.83 0.92 1.01 1.09 1.09 1.04 1.00 0.88 0.85 0.81 0.67 0.45 0.30 0.27 0.22 0.18 0.14 0.10 0.07
0.71 0.71 0.63 0.47 0.41 0.40 0.37 0.34 0.30 0.28 0.29 0.31 0.36 0.40 0.44 0.44 0.43 0.42 0.47 0.53 0.54 0.53 0.54 0.55 0.58 0.67 0.79 0.93 1.01 1.03 1.06 1.06 1.01 0.92 0.81 0.67 0.45 0.33 0.27 0.22 0.18 0.16 0.13
1.02 0.94 0.77 0.63 0.56 0.49 0.43 0.37 0.34 0.36 0.35 0.37 0.46 0.48 0.46 0.41 0.42 0.42 0.44 0.44 0.41 0.39 0.38 0.36 0.37 0.41 0.49 0.63 0.78 0.92 1.04 1.09 1.12 1.08 0.92 0.72 0.60 0.50 0.34 0.27 0.27 0.25 0.22
1.02 0.89 0.75 0.62 0.50 0.44 0.43 0.39 0.39 0.41 0.40 0.42 0.47 0.50 0.53 0.50 0.48 0.47 0.43 0.39 0.36 0.35 0.31 0.23 0.21 0.25 0.29 0.34 0.41 0.60 0.81 0.95 1.00 1.04 0.96 0.79 0.64 0.55 0.44 0.37 0.36 0.36 0.31
0.91 0.78 0.61 0.51 0.46 0.42 0.41 0.37 0.35 0.34 0.34 0.36 0.40 0.48 0.52 0.47 0.57 0.52 0.40 0.31 0.31 0.30 0.25 0.21 0.21 0.24 0.22 0.19 0.20 0.29 0.46 0.63 0.78 0.90 0.94 0.84 0.71 0.62 0.56 0.49 0.39 0.33 0.29
0.61 0.56 0.45 0.38 0.36 0.35 0.34 0.33 0.34 0.35 0.34 0.35 0.35 0.39 0.44 0.56 0.50 0.34 0.31 0.28 0.30 0.30 0.29 0.28 0.26 0.24 0.27 0.21 0.20 0.20 0.24 0.27 0.39 0.59 0.75 0.81 0.88 0.76 0.59 0.47 0.39 0.34 0.35
0.51 0.50 0.43 0.37 0.34 0.33 0.31 0.33 0.40 0.40 0.37 0.37 0.38 0.36 0.40 0.49 0.40 0.26 0.26 0.25 0.33 0.38 0.36 0.36 0.37 0.32 0.30 0.30 0.30 0.34 0.33 0.29 0.35 0.28 0.38 0.66 0.73 0.71 0.63 0.55 0.49 0.43 0.37
0.30 0.34 0.33 0.28 0.29 0.32 0.32 0.37 0.40 0.40 0.43 0.42 0.42 0.40 0.43 0.44 0.35 0.25 0.26 0.33 0.44 0.45 0.39 0.42 0.41 0.35 0.41 0.37 0.40 0.52 0.51 0.45 0.56 0.54 0.49 0.51 0.51 0.48 0.48 0.51 0.50 0.44 0.39
0.10 0.14 0.18 0.19 0.22 0.28 0.36 0.42 0.39 0.37 0.41 0.41 0.38 0.34 0.36 0.36 0.38 0.25 0.31 0.41 0.47 0.49 0.47 0.49 0.57 0.48 0.48 0.37 0.32 0.45 0.52 0.48 0.42 0.45 0.41 0.33 0.25 0.26 0.31 0.33 0.46 0.51 0.49
0.02 0.04 0.07 0.11 0.16 0.25 0.32 0.31 0.30 0.33 0.35 0.35 0.37 0.35 0.34 0.39 0.46 0.44 0.47 0.49 0.54 0.58 0.61 0.66 0.62 0.62 0.43 0.32 0.27 0.30 0.37 0.39 0.41 0.45 0.48 0.41 0.32 0.30 0.27 0.25 0.29 0.35 0.42
0.00 0.01 0.02 0.04 0.07 0.12 0.19 0.22 0.24 0.28 0.29 0.28 0.29 0.29 0.32 0.40 0.46 0.48 0.49 0.52 0.57 0.56 0.61 0.59 0.52 0.52 0.36 0.26 0.19 0.22 0.22 0.22 0.30 0.42 0.45 0.43 0.42 0.41 0.35 0.31 0.28 0.27 0.29
0.00 0.00 0.00 0.01 0.02 0.05 0.12 0.16 0.20 0.26 0.28 0.26 0.24 0.26 0.28 0.32 0.38 0.40 0.40 0.39 0.40 0.41 0.39 0.42 0.40 0.32 0.25 0.19 0.16 0.18 0.19 0.20 0.25 0.30 0.36 0.38 0.38 0.39 0.38 0.36 0.32 0.28 0.24
0.00 0.00 0.00 0.01 0.01 0.03 0.05 0.12 0.21 0.24 0.22 0.23 0.24 0.26 0.29 0.32 0.32 0.31 0.33 0.34 0.31 0.32 0.31 0.29 0.25 0.21 0.20 0.20 0.19 0.17 0.18 0.23 0.27 0.28 0.31 0.34 0.36 0.36 0.36 0.36 0.38 0.39 0.39
0.00 0.00 0.00 0.00 0.01 0.02 0.02 0.06 0.13 0.15 0.14 0.18 0.23 0.27 0.31 0.33 0.29 0.26 0.26 0.31 0.34 0.38 0.40 0.32 0.26 0.24 0.22 0.24 0.26 0.23 0.23 0.27 0.30 0.29 0.29 0.29 0.29 0.33 0.35 0.32 0.31 0.34 0.36
0.00 0.00 0.00 0.00 0.01 0.01 0.02 0.03 0.05 0.05 0.07 0.08 0.09 0.13 0.13 0.13 0.13 0.13 0.16 0.20 0.26 0.30 0.41 0.44 0.45 0.48 0.47 0.44 0.40 0.32 0.27 0.26 0.29 0.33 0.32 0.28 0.29 0.29 0.33 0.34 0.31 0.32 0.31
0.00 0.00 0.00 0.00 0.01 0.01 0.02 0.05 0.05 0.03 0.01 0.01 0.02 0.03 0.06 0.08 0.10 0.12 0.13 0.16 0.19 0.22 0.39 0.52 0.53 0.50 0.45 0.40 0.36 0.31 0.24 0.20 0.19 0.23 0.31 0.35 0.33 0.33 0.36 0.38 0.35 0.31 0.29
0.00 0.00 0.00 0.02 0.02 0.02 0.04 0.07 0.13 0.15 0.11 0.04 0.02 0.01 0.03 0.05 0.07 0.10 0.16 0.22 0.21 0.22 0.35 0.42 0.41 0.38 0.32 0.23 0.17 0.13 0.13 0.11 0.10 0.10 0.12 0.19 0.30 0.38 0.44 0.47 0.49 0.50 0.47
0.00 0.01 0.01 0.04 0.04 0.05 0.06 0.10 0.13 0.13 0.10 0.05 0.03 0.02 0.01 0.02 0.02 0.04 0.09 0.15 0.15 0.14 0.16 0.16 0.16 0.16 0.14 0.11 0.08 0.05 0.04 0.04 0.04 0.04 0.05 0.07 0.13 0.25 0.38 0.47 0.51 0.54 0.53
0.00 0.00 0.01 0.03 0.05 0.04 0.05 0.06 0.09 0.08 0.05 0.04 0.04 0.03 0.03 0.04 0.04 0.04 0.04 0.07 0.09 0.08 0.07 0.07 0.06 0.06 0.06 0.05 0.05 0.04 0.04 0.03 0.04 0.05 0.08 0.12 0.17 0.19 0.22 0.31 0.41 0.45 0.43
0.00 0.00 0.00 0.02 0.04 0.04 0.04 0.02 0.03 0.05 0.04 0.03 0.02 0.01 0.02 0.06 0.08 0.06 0.04 0.04 0.05 0.06 0.06 0.05 0.05 0.04 0.03 0.04 0.04 0.04 0.03 0.03 0.03 0.03 0.06 0.12 0.18 0.24 0.25 0.24 0.25 0.29 0.33
0.00 0.00 0.01 0.03 0.05 0.05 0.03 0.03 0.03 0.04 0.03 0.02 0.02 0.01 0.01 0.06 0.07 0.07 0.07 0.05 0.05 0.05 0.04 0.04 0.05 0.05 0.04 0.04 0.04 0.04 0.03 0.03 0.03 0.03 0.04 0.05 0.08 0.13 0.18 0.23 0.25 0.25 0.26
0.00 0.00 0.00 0.02 0.03 0.03 0.03 0.03 0.03 0.04 0.04 0.03 0.02 0.02 0.02 0.04 0.05 0.06 0.07 0.07 0.06 0.06 0.05 0.07 0.07 0.07 0.07 0.08 0.07 0.06 0.05 0.05 0.05 0.05 0.06 0.05 0.05 0.06 0.08 0.11 0.14 0.17 0.19
0.00 0.00 0.01 0.02 0.02 0.02 0.03 0.04 0.04 0.03 0.04 0.03 0.03 0.03 0.04 0.05 0.04 0.04 0.04 0.04 0.03 0.04 0.04 0.05 0.06 0.07 0.08 0.10 0.10 0.10 0.09 0.08 0.06 0.05 0.07 0.09 0.10 0.10 0.10 0.10 0.11 0.13 0.17
0.00 0.00 0.01 0.01 0.02 0.02 0.02 0.02 0.03 0.03 0.03 0.03 0.04 0.03 0.03 0.04 0.04 0.03 0.03 0.03 0.04 0.03 0.03 0.02 0.03 0.04 0.07 0.12 0.13 0.10 0.12 0.11 0.08 0.05 0.04 0.06 0.08 0.09 0.11 0.13 0.16 0.19 0.24
0.00 0.00 0.01 0.01 0.02 0.02 0.02 0.02 0.03 0.03 0.03 0.03 0.03 0.03 0.03 0.03 0.03 0.03 0.03 0.04 0.04 0.03 0.02 0.03 0.04 0.03 0.04 0.09 0.13 0.16 0.13 0.09 0.09 0.09 0.05 0.04 0.07 0.11 0.14 0.17 0.20 0.25 0.28

GEFSGL_prec_meanprecacc_060.txt.gz
Total_Precipitation_Accumulation
0.60 0.60 0.57 0.47 0.43 0.42 0.40 0.40 0.34 0.35 0.41 0.45 0.50 0.57 0.60 0.63 0.75 0.92 1.01 1.00 0.98 0.96 0.94 1.01 1.14 1.19 1.23 1.17 1.09 0.96 0.85 0.83 0.79 0.71 0.51 0.31 0.28 0.29 0.25 0.16 0.10 0.07 0.07
0.63 0.62 0.58 0.49 0.43 0.43 0.38 0.35 0.30 0.29 0.31 0.36 0.42 0.49 0.55 0.56 0.58 0.66 0.74 0.75 0.75 0.77 0.78 0.80 0.90 1.00 1.10 1.17 1.17 1.13 1.09 0.97 0.93 0.90 0.75 0.51 0.36 0.32 0.26 0.22 0.17 0.12 0.09
0.81 0.83 0.73 0.58 0.53 0.49 0.43 0.40 0.34 0.33 0.35 0.36 0.41 0.45 0.49 0.50 0.52 0.52 0.54 0.58 0.60 0.59 0.60 0.62 0.65 0.74 0.87 1.00 1.08 1.11 1.13 1.12 1.08 1.00 0.88 0.73 0.50 0.37 0.31 0.25 0.20 0.18 0.14
1.07 1.02 0.84 0.70 0.62 0.54 0.47 0.41 0.38 0.40 0.41 0.44 0.53 0.54 0.52 0.47 0.49 0.51 0.52 0.50 0.47 0.45 0.45 0.43 0.44 0.49 0.58 0.71 0.86 1.00 1.09 1.14 1.17 1.14 0.97 0.76 0.63 0.53 0.38 0.31 0.30 0.27 0.24
1.04 0.92 0.78 0.65 0.54 0.47 0.46 0.42 0.42 0.44 0.43 0.46 0.51 0.56 0.58 0.55 0.53 0.55 0.52 0.47 0.44 0.43 0.38 0.30 0.28 0.32 0.35 0.41 0.48 0.66 0.86 0.99 1.04 1.07 0.99 0.81 0.66 0.57 0.46 0.40 0.38 0.38 0.33
0.92 0.79 0.62 0.53 0.49 0.45 0.43 0.38 0.36 0.36 0.37 0.39 0.43 0.51 0.58 0.52 0.61 0.56 0.45 0.37 0.38 0.38 0.33 0.28 0.27 0.29 0.27 0.23 0.24 0.33 0.51 0.68 0.82 0.93 0.97 0.86 0.73 0.64 0.58 0.50 0.41 0.35 0.30
0.62 0.57 0.46 0.39 0.37 0.36 0.35 0.34 0.35 0.36 0.35 0.37 0.38 0.44 0.51 0.64 0.55 0.39 0.37 0.33 0.34 0.36 0.37 0.37 0.32 0.29 0.33 0.26 0.22 0.23 0.26 0.30 0.42 0.62 0.78 0.83 0.90 0.77 0.61 0.49 0.41 0.36 0.36
0.51 0.50 0.43 0.38 0.34 0.33 0.32 0.34 0.41 0.41 0.37 0.39 0.40 0.40 0.45 0.54 0.44 0.30 0.31 0.29 0.37 0.42 0.42 0.43 0.45 0.39 0.36 0.36 0.34 0.38 0.36 0.30 0.36 0.29 0.40 0.67 0.74 0.72 0.64 0.56 0.50 0.43 0.37
0.30 0.34 0.33 0.28 0.29 0.32 0.32 0.37 0.41 0.41 0.44 0.44 0.44 0.44 0.46 0.48 0.39 0.29 0.29 0.36 0.48 0.49 0.43 0.47 0.48 0.42 0.46 0.45 0.48 0.58 0.56 0.47 0.57 0.56 0.50 0.51 0.52 0.49 0.49 0.52 0.52 0.46 0.40
0.10 0.14 0.18 0.19 0.22 0.28 0.36 0.42 0.39 0.37 0.41 0.41 0.39 0.36 0.38 0.39 0.42 0.29 0.33 0.45 0.51 0.52 0.50 0.52 0.61 0.54 0.52 0.42 0.39 0.52 0.59 0.52 0.44 0.46 0.42 0.34 0.26 0.27 0.32 0.34 0.47 0.54 0.52
0.02 0.04 0.07 0.11 0.16 0.25 0.32 0.31 0.30 0.33 0.35 0.35 0.37 0.36 0.35 0.41 0.49 0.47 0.50 0.52 0.57 0.60 0.63 0.67 0.64 0.67 0.47 0.36 0.34 0.35 0.42 0.42 0.43 0.47 0.49 0.42 0.34 0.32 0.28 0.26 0.30 0.36 0.44
0.00 0.01 0.02 0.04 0.07 0.12 0.19 0.22 0.25 0.28 0.29 0.28 0.29 0.30 0.33 0.41 0.48 0.50 0.51 0.53 0.58 0.57 0.62 0.61 0.55 0.56 0.41 0.30 0.23 0.26 0.26 0.24 0.31 0.44 0.47 0.45 0.43 0.42 0.36 0.31 0.28 0.27 0.30
0.00 0.00 0.00 0.01 0.02 0.05 0.12 0.16 0.20 0.26 0.28 0.26 0.25 0.26 0.29 0.33 0.39 0.41 0.41 0.40 0.41 0.43 0.40 0.45 0.43 0.36 0.29 0.21 0.20 0.22 0.21 0.23 0.28 0.32 0.38 0.39 0.38 0.39 0.38 0.36 0.32 0.28 0.24
0.00 0.00 0.00 0.01 0.01 0.03 0.06 0.12 0.21 0.24 0.22 0.23 0.25 0.26 0.29 0.32 0.32 0.32 0.34 0.35 0.32 0.33 0.31 0.31 0.28 0.24 0.23 0.22 0.21 0.20 0.20 0.26 0.29 0.30 0.32 0.35 0.37 0.37 0.37 0.37 0.39 0.39 0.39
0.00 0.00 0.00 0.00 0.01 0.02 0.02 0.06 0.13 0.15 0.14 0.18 0.23 0.27 0.31 0.33 0.30 0.26 0.26 0.31 0.35 0.38 0.41 0.34 0.28 0.26 0.24 0.27 0.27 0.24 0.25 0.29 0.31 0.30 0.31 0.31 0.31 0.34 0.36 0.33 0.32 0.35 0.37
0.00 0.00 0.00 0.00 0.01 0.01 0.02 0.03 0.05 0.05 0.07 0.08 0.09 0.13 0.13 0.13 0.13 0.13 0.16 0.20 0.26 0.31 0.42 0.45 0.46 0.50 0.49 0.46 0.41 0.32 0.27 0.26 0.29 0.34 0.32 0.30 0.30 0.30 0.33 0.34 0.32 0.33 0.32
0.00 0.00 0.00 0.00 0.01 0.01 0.02 0.05 0.05 0.03 0.01 0.02 0.02 0.03 0.06 0.08 0.10 0.12 0.13 0.16 0.19 0.23 0.40 0.53 0.53 0.51 0.45 0.40 0.36 0.31 0.24 0.20 0.19 0.23 0.31 0.35 0.33 0.33 0.36 0.38 0.36 0.32 0.30
0.00 0.00 0.00 0.02 0.02 0.02 0.04 0.07 0.13 0.15 0.11 0.04 0.02 0.01 0.03 0.05 0.07 0.10 0.16 0.22 0.21 0.22 0.35 0.42 0.41 0.38 0.32 0.23 0.17 0.13 0.13 0.11 0.10 0.10 0.12 0.19 0.30 0.38 0.45 0.47 0.50 0.50 0.47
0.00 0.01 0.01 0.04 0.04 0.05 0.06 0.10 0.13 0.13 0.10 0.05 0.03 0.02 0.01 0.02 0.02 0.04 0.09 0.15 0.15 0.14 0.16 0.16 0.16 0.16 0.14 0.11 0.08 0.05 0.04 0.04 0.04 0.04 0.05 0.07 0.13 0.25 0.38 0.47 0.51 0.55 0.53
0.00 0.00 0.01 0.03 0.05 0.04 0.05 0.06 0.09 0.08 0.05 0.04 0.04 0.03 0.03 0.04 0.04 0.04 0.04 0.07 0.09 0.08 0.07 0.07 0.06 0.06 0.06 0.05 0.05 0.04 0.04 0.03 0.04 0.05 0.08 0.12 0.17 0.19 0.22 0.31 0.41 0.45 0.43
0.00 0.00 0.00 0.02 0.04 0.04 0.04 0.02 0.03 0.05 0.04 0.03 0.02 0.01 0.02 0.06 0.08 0.06 0.04 0.04 0.05 0.06 0.06 0.05 0.05 0.04 0.03 0.04 0.04 0.04 0.03 0.03 0.03 0.03 0.06 0.12 0.18 0.24 0.25 0.24 0.25 0.29 0.33
0.00 0.00 0.01 0.03 0.05 0.05 0.03 0.03 0.03 0.04 0.03 0.02 0.02 0.01 0.01 0.06 0.07 0.07 0.07 0.05 0.05 0.05 0.04 0.04 0.05 0.05 0.04 0.04 0.04 0.04 0.03 0.03 0.03 0.03 0.04 0.05 0.08 0.13 0.18 0.23 0.25 0.25 0.26
0.00 0.00 0.00 0.02 0.03 0.03 0.03 0.03 0.03 0.04 0.04 0.03 0.02 0.02 0.02 0.04 0.05 0.06 0.07 0.07 0.06 0.06 0.05 0.07 0.07 0.07 0.07 0.08 0.07 0.06 0.05 0.05 0.05 0.05 0.06 0.05 0.05 0.06 0.08 0.11 0.14 0.17 0.20
0.00 0.00 0.01 0.02 0.02 0.02 0.03 0.04 0.04 0.03 0.04 0.03 0.03 0.03 0.04 0.05 0.04 0.04 0.04 0.04 0.03 0.04 0.04 0.05 0.06 0.07 0.08 0.10 0.10 0.10 0.09 0.08 0.06 0.05 0.07 0.09 0.10 0.10 0.10 0.10 0.11 0.13 0.17
0.00 0.00 0.01 0.01 0.02 0.02 0.02 0.02 0.03 0.03 0.03 0.03 0.04 0.03 0.03 0.04 0.04 0.03 0.03 0.03 0.04 0.03 0.03 0.02 0.03 0.04 0.07 0.12 0.13 0.10 0.12 0.11 0.08 0.05 0.04 0.06 0.08 0.09 0.11 0.13 0.16 0.19 0.24
0.00 0.00 0.01 0.01 0.02 0.02 0.02 0.02 0.03 0.03 0.03 0.03 0.03 0.03 0.03 0.03 0.03 0.03 0.03 0.04 0.04 0.03 0.02 0.03 0.04 0.03 0.04 0.09 0.13 0.16 0.13 0.09 0.09 0.09 0.05 0.04 0.07 0.11 0.14 0.17 0.20 0.25 0.28

GEFSGL_prec_meanprecacc_066.txt.gz
Total_Precipitation_Accumulation
0.68 0.71 0.69 0.62 0.60 0.58 0.55 0.54 0.48 0.49 0.54 0.59 0.62 0.69 0.73 0.78 0.92 1.10 1.17 1.16 1.16 1.13 1.10 1.16 1.28 1.34 1.39 1.34 1.25 1.09 0.96 0.92 0.88 0.78 0.58 0.35 0.32 0.32 0.29 0.21 0.14 0.12 0.11
0.67 0.68 0.68 0.57 0.50 0.52 0.49 0.47 0.42 0.41 0.43 0.46 0.53 0.62 0.67 0.67 0.68 0.77 0.86 0.89 0.91 0.92 0.92 0.92 1.00 1.09 1.19 1.28 1.28 1.23 1.18 1.05 1.01 0.98 0.83 0.58 0.42 0.37 0.31 0.29 0.25 0.20 0.18
0.84 0.87 0.79 0.64 0.58 0.55 0.50 0.47 0.42 0.41 0.44 0.47 0.53 0.61 0.63 0.61 0.61 0.61 0.62 0.67 0.70 0.71 0.73 0.72 0.74 0.84 0.96 1.08 1.16 1.19 1.23 1.21 1.17 1.09 0.99 0.83 0.59 0.45 0.39 0.34 0.31 0.32 0.24
1.10 1.05 0.88 0.74 0.66 0.58 0.52 0.46 0.42 0.45 0.47 0.52 0.62 0.66 0.64 0.56 0.58 0.61 0.59 0.56 0.53 0.52 0.54 0.52 0.54 0.59 0.67 0.79 0.95 1.10 1.20 1.24 1.26 1.24 1.08 0.87 0.73 0.62 0.48 0.42 0.44 0.42 0.36
1.05 0.94 0.79 0.67 0.56 0.50 0.51 0.46 0.45 0.48 0.48 0.53 0.57 0.64 0.66 0.61 0.59 0.63 0.60 0.52 0.48 0.49 0.45 0.38 0.36 0.40 0.42 0.47 0.55 0.76 0.96 1.10 1.14 1.19 1.11 0.92 0.75 0.65 0.55 0.51 0.50 0.51 0.47
0.93 0.80 0.63 0.56 0.52 0.47 0.45 0.40 0.39 0.39 0.40 0.43 0.47 0.57 0.65 0.58 0.67 0.62 0.53 0.44 0.43 0.44 0.40 0.37 0.34 0.36 0.31 0.26 0.28 0.39 0.59 0.78 0.92 1.03 1.07 0.95 0.81 0.71 0.67 0.61 0.53 0.47 0.40
0.62 0.57 0.46 0.41 0.39 0.38 0.36 0.36 0.37 0.38 0.38 0.42 0.44 0.51 0.58 0.68 0.60 0.44 0.44 0.40 0.41 0.43 0.45 0.47 0.42 0.36 0.40 0.31 0.26 0.27 0.31 0.38 0.52 0.71 0.88 0.91 0.97 0.86 0.70 0.58 0.51 0.47 0.43
0.52 0.50 0.43 0.38 0.35 0.34 0.33 0.35 0.42 0.42 0.40 0.41 0.44 0.45 0.52 0.60 0.48 0.35 0.37 0.35 0.42 0.49 0.50 0.54 0.56 0.50 0.45 0.46 0.43 0.45 0.42 0.35 0.41 0.35 0.45 0.72 0.79 0.77 0.70 0.63 0.57 0.49 0.41
0.30 0.35 0.33 0.29 0.30 0.33 0.33 0.38 0.42 0.42 0.45 0.45 0.46 0.47 0.50 0.51 0.41 0.32 0.34 0.41 0.53 0.55 0.49 0.55 0.58 0.52 0.54 0.55 0.61 0.69 0.63 0.51 0.61 0.61 0.54 0.54 0.55 0.52 0.53 0.56 0.57 0.51 0.44
0.10 0.14 0.18 0.19 0.22 0.28 0.37 0.43 0.40 0.38 0.42 0.43 0.41 0.38 0.41 0.42 0.44 0.31 0.37 0.49 0.56 0.58 0.56 0.59 0.71 0.62 0.58 0.52 0.53 0.64 0.67 0.57 0.47 0.49 0.44 0.36 0.28 0.29 0.34 0.39 0.54 0.62 0.58
0.02 0.04 0.07 0.11 0.17 0.25 0.32 0.31 0.31 0.34 0.37 0.37 0.40 0.39 0.38 0.43 0.51 0.49 0.52 0.56 0.60 0.64 0.70 0.74 0.68 0.71 0.52 0.44 0.45 0.43 0.49 0.49 0.49 0.52 0.54 0.46 0.36 0.33 0.30 0.27 0.32 0.42 0.52
0.00 0.01 0.02 0.04 0.07 0.12 0.19 0.23 0.25 0.29 0.30 0.29 0.30 0.31 0.35 0.44 0.50 0.51 0.52 0.56 0.61 0.61 0.66 0.64 0.57 0.59 0.44 0.34 0.30 0.32 0.31 0.31 0.38 0.50 0.53 0.50 0.47 0.44 0.38 0.32 0.29 0.27 0.31
0.00 0.00 0.00 0.01 0.02 0.06 0.12 0.17 0.21 0.27 0.29 0.27 0.25 0.27 0.31 0.35 0.41 0.42 0.42 0.41 0.42 0.44 0.41 0.46 0.44 0.38 0.32 0.25 0.24 0.27 0.26 0.28 0.33 0.38 0.43 0.43 0.40 0.40 0.39 0.37 0.33 0.28 0.24
0.00 0.00 0.00 0.01 0.01 0.03 0.06 0.13 0.21 0.24 0.23 0.23 0.25 0.27 0.30 0.33 0.33 0.33 0.36 0.36 0.33 0.34 0.32 0.32 0.29 0.25 0.25 0.24 0.24 0.24 0.25 0.29 0.33 0.33 0.34 0.38 0.38 0.38 0.38 0.39 0.40 0.40 0.39
0.00 0.00 0.00 0.00 0.01 0.02 0.02 0.06 0.13 0.15 0.14 0.18 0.23 0.27 0.31 0.34 0.30 0.26 0.27 0.32 0.36 0.39 0.42 0.36 0.30 0.28 0.27 0.29 0.30 0.26 0.27 0.30 0.33 0.32 0.33 0.34 0.33 0.36 0.37 0.35 0.34 0.37 0.38
0.00 0.00 0.00 0.00 0.01 0.01 0.02 0.03 0.05 0.05 0.07 0.08 0.09 0.13 0.13 0.13 0.13 0.13 0.16 0.20 0.26 0.31 0.43 0.48 0.48 0.51 0.50 0.48 0.45 0.35 0.28 0.28 0.31 0.35 0.34 0.31 0.32 0.32 0.34 0.36 0.34 0.35 0.33
0.00 0.00 0.00 0.00 0.01 0.01 0.02 0.05 0.05 0.03 0.01 0.02 0.02 0.03 0.06 0.08 0.10 0.12 0.13 0.16 0.19 0.23 0.41 0.55 0.55 0.53 0.48 0.43 0.39 0.32 0.26 0.20 0.20 0.24 0.31 0.35 0.34 0.34 0.37 0.39 0.37 0.33 0.30
0.00 0.00 0.00 0.02 0.02 0.02 0.04 0.07 0.13 0.15 0.11 0.04 0.02 0.01 0.03 0.05 0.07 0.10 0.16 0.23 0.22 0.23 0.37 0.44 0.43 0.40 0.34 0.25 0.18 0.14 0.13 0.12 0.10 0.11 0.12 0.19 0.31 0.38 0.45 0.47 0.50 0.50 0.47
0.00 0.01 0.01 0.04 0.04 0.05 0.06 0.10 0.13 0.13 0.10 0.05 0.03 0.02 0.01 0.02 0.02 0.04 0.09 0.16 0.16 0.15 0.17 0.17 0.16 0.17 0.15 0.12 0.08 0.06 0.05 0.05 0.04 0.04 0.05 0.07 0.14 0.25 0.38 0.47 0.51 0.55 0.54
0.00 0.00 0.01 0.03 0.05 0.04 0.05 0.06 0.09 0.08 0.05 0.04 0.04 0.03 0.03 0.04 0.04 0.04 0.05 0.07 0.09 0.08 0.07 0.07 0.06 0.06 0.06 0.05 0.05 0.04 0.04 0.04 0.04 0.05 0.08 0.12 0.17 0.19 0.22 0.31 0.41 0.45 0.43
0.00 0.00 0.00 0.02 0.04 0.04 0.04 0.02 0.03 0.05 0.04 0.03 0.02 0.01 0.02 0.06 0.08 0.06 0.04 0.04 0.05 0.06 0.06 0.05 0.05 0.04 0.03 0.04 0.04 0.04 0.03 0.03 0.03 0.03 0.06 0.12 0.18 0.24 0.25 0.24 0.25 0.29 0.33
0.00 0.00 0.01 0.03 0.05 0.05 0.03 0.03 0.03 0.04 0.03 0.02 0.02 0.01 0.01 0.06 0.07 0.07 0.07 0.05 0.05 0.05 0.04 0.04 0.05 0.05 0.04 0.04 0.04 0.04 0.03 0.03 0.03 0.03 0.04 0.05 0.08 0.13 0.18 0.23 0.25 0.25 0.26
0.00 0.00 0.00 0.02 0.03 0.03 0.03 0.03 0.03 0.04 0.04 0.03 0.02 0.02 0.02 0.04 0.05 0.06 0.07 0.07 0.06 0.06 0.05 0.07 0.07 0.07 0.07 0.08 0.07 0.06 0.05 0.05 0.05 0.05 0.06 0.05 0.05 0.06 0.08 0.11 0.14 0.17 0.20
0.00 0.00 0.01 0.02 0.02 0.02 0.03 0.04 0.04 0.03 0.04 0.03 0.03 0.03 0.04 0.05 0.04 0.04 0.04 0.04 0.03 0.04 0.04 0.05 0.06 0.07 0.08 0.10 0.10 0.10 0.09 0.08 0.06 0.05 0.07 0.09 0.10 0.10 0.10 0.10 0.11 0.13 0.17
0.00 0.00 0.01 0.01 0.02 0.02 0.02 0.02 0.03 0.03 0.03 0.03 0.04 0.03 0.03 0.04 0.04 0.03 0.03 0.03 0.04 0.03 0.03 0.02 0.03 0.04 0.07 0.12 0.13 0.10 0.12 0.11 0.08 0.05 0.04 0.06 0.08 0.09 0.11 0.13 0.16 0.19 0.24
0.00 0.00 0.01 0.01 0.02 0.02 0.02 0.02 0.03 0.03 0.03 0.03 0.03 0.03 0.03 0.03 0.03 0.03 0.03 0.04 0.04 0.03 0.02 0.03 0.04 0.03 0.04 0.09 0.13 0.16 0.13 0.09 0.09 0.09 0.05 0.05 0.07 0.11 0.14 0.17 0.20 0.25 0.28

GEFSGL_prec_meanprecacc_072.txt.gz
Total_Precipitation_Accumulation
0.70 0.74 0.73 0.66 0.66 0.67 0.65 0.62 0.58 0.59 0.63 0.71 0.74 0.84 0.92 1.00 1.18 1.35 1.39 1.41 1.41 1.37 1.33 1.38 1.48 1.53 1.56 1.50 1.41 1.24 1.08 1.02 0.96 0.85 0.64 0.41 0.40 0.41 0.37 0.28 0.19 0.16 0.16
0.69 0.70 0.72 0.62 0.56 0.58 0.56 0.56 0.51 0.49 0.51 0.56 0.65 0.77 0.85 0.85 0.88 1.01 1.07 1.08 1.11 1.15 1.12 1.11 1.19 1.27 1.36 1.44 1.43 1.36 1.29 1.16 1.11 1.08 0.91 0.65 0.46 0.42 0.38 0.36 0.30 0.25 0.24
0.84 0.89 0.81 0.67 0.62 0.59 0.54 0.53 0.49 0.49 0.52 0.55 0.62 0.72 0.77 0.74 0.74 0.74 0.75 0.81 0.85 0.86 0.87 0.85 0.86 0.96 1.10 1.21 1.28 1.29 1.31 1.30 1.25 1.16 1.05 0.89 0.63 0.49 0.44 0.41 0.37 0.40 0.32
1.10 1.06 0.88 0.76 0.68 0.60 0.53 0.48 0.47 0.50 0.53 0.58 0.69 0.73 0.74 0.67 0.68 0.69 0.68 0.66 0.65 0.63 0.65 0.64 0.65 0.67 0.75 0.88 1.04 1.19 1.28 1.31 1.32 1.30 1.13 0.91 0.77 0.66 0.53 0.48 0.51 0.50 0.45
1.05 0.94 0.79 0.67 0.57 0.51 0.52 0.48 0.47 0.51 0.52 0.57 0.60 0.67 0.71 0.68 0.67 0.69 0.66 0.57 0.54 0.55 0.52 0.45 0.44 0.47 0.48 0.53 0.60 0.81 1.02 1.15 1.19 1.22 1.14 0.95 0.77 0.69 0.60 0.57 0.57 0.59 0.56
0.93 0.80 0.63 0.56 0.52 0.48 0.46 0.42 0.40 0.40 0.42 0.47 0.49 0.61 0.70 0.65 0.76 0.70 0.58 0.49 0.48 0.48 0.44 0.41 0.40 0.41 0.36 0.30 0.31 0.43 0.63 0.82 0.95 1.06 1.09 0.97 0.84 0.75 0.72 0.68 0.60 0.54 0.50
0.62 0.57 0.47 0.41 0.39 0.38 0.37 0.37 0.38 0.40 0.41 0.44 0.46 0.55 0.64 0.75 0.69 0.51 0.49 0.47 0.48 0.49 0.50 0.52 0.47 0.42 0.47 0.36 0.30 0.30 0.34 0.41 0.55 0.73 0.90 0.94 0.99 0.89 0.74 0.64 0.58 0.56 0.52
0.52 0.50 0.43 0.38 0.35 0.35 0.33 0.35 0.43 0.43 0.41 0.44 0.47 0.48 0.56 0.66 0.55 0.40 0.42 0.39 0.48 0.54 0.55 0.60 0.63 0.59 0.53 0.53 0.47 0.49 0.46 0.39 0.45 0.38 0.48 0.75 0.83 0.81 0.74 0.68 0.64 0.57 0.48
0.30 0.35 0.34 0.29 0.30 0.33 0.33 0.38 0.42 0.42 0.46 0.46 0.47 0.48 0.52 0.55 0.48 0.38 0.39 0.46 0.58 0.59 0.54 0.61 0.65 0.60 0.62 0.61 0.66 0.73 0.66 0.53 0.63 0.64 0.57 0.58 0.59 0.56 0.56 0.60 0.62 0.55 0.48
0.10 0.14 0.18 0.19 0.22 0.28 0.37 0.43 0.41 0.39 0.43 0.44 0.42 0.40 0.43 0.44 0.47 0.36 0.45 0.57 0.61 0.61 0.60 0.64 0.79 0.70 0.66 0.59 0.58 0.69 0.71 0.60 0.49 0.51 0.47 0.38 0.30 0.31 0.36 0.42 0.57 0.64 0.60
0.02 0.04 0.07 0.11 0.17 0.25 0.32 0.31 0.31 0.34 0.37 0.38 0.42 0.41 0.41 0.46 0.54 0.54 0.59 0.60 0.63 0.67 0.74 0.79 0.74 0.78 0.59 0.52 0.50 0.47 0.53 0.53 0.52 0.56 0.57 0.48 0.39 0.35 0.32 0.29 0.34 0.44 0.54
0.00 0.01 0.02 0.04 0.07 0.12 0.20 0.23 0.26 0.29 0.30 0.30 0.32 0.33 0.36 0.46 0.52 0.53 0.55 0.58 0.63 0.63 0.68 0.67 0.62 0.67 0.50 0.41 0.35 0.37 0.36 0.35 0.42 0.54 0.55 0.52 0.48 0.45 0.40 0.33 0.30 0.29 0.33
0.00 0.00 0.00 0.01 0.02 0.06 0.12 0.17 0.21 0.27 0.29 0.27 0.26 0.28 0.31 0.35 0.41 0.43 0.43 0.42 0.43 0.45 0.43 0.50 0.50 0.45 0.39 0.31 0.32 0.33 0.31 0.32 0.37 0.40 0.44 0.44 0.41 0.41 0.41 0.38 0.34 0.29 0.25
0.00 0.00 0.00 0.01 0.01 0.03 0.06 0.13 0.21 0.24 0.23 0.23 0.25 0.27 0.31 0.33 0.33 0.33 0.37 0.37 0.34 0.35 0.34 0.35 0.33 0.31 0.33 0.32 0.31 0.32 0.32 0.34 0.35 0.34 0.35 0.38 0.38 0.38 0.39 0.39 0.41 0.40 0.39
0.00 0.00 0.00 0.00 0.01 0.02 0.02 0.06 0.13 0.15 0.14 0.18 0.23 0.27 0.31 0.34 0.30 0.27 0.27 0.32 0.37 0.41 0.45 0.38 0.32 0.30 0.31 0.36 0.36 0.31 0.32 0.34 0.34 0.33 0.34 0.34 0.34 0.36 0.37 0.35 0.35 0.37 0.38
0.00 0.00 0.00 0.00 0.01 0.01 0.02 0.03 0.05 0.05 0.07 0.08 0.09 0.13 0.13 0.13 0.13 0.13 0.16 0.21 0.27 0.33 0.45 0.50 0.50 0.53 0.53 0.52 0.48 0.37 0.31 0.29 0.32 0.36 0.34 0.31 0.32 0.32 0.34 0.36 0.35 0.35 0.33
0.00 0.00 0.00 0.00 0.01 0.01 0.02 0.05 0.05 0.03 0.01 0.02 0.02 0.03 0.06 0.08 0.10 0.12 0.13 0.17 0.19 0.24 0.42 0.56 0.56 0.54 0.49 0.45 0.41 0.34 0.26 0.21 0.20 0.25 0.32 0.36 0.34 0.34 0.37 0.39 0.37 0.33 0.30
0.00 0.00 0.00 0.02 0.02 0.02 0.04 0.07 0.13 0.15 0.11 0.04 0.02 0.01 0.03 0.05 0.07 0.10 0.16 0.23 0.22 0.24 0.37 0.44 0.43 0.41 0.34 0.26 0.19 0.14 0.13 0.12 0.10 0.11 0.12 0.19 0.31 0.38 0.45 0.47 0.50 0.50 0.47
0.00 0.01 0.01 0.04 0.04 0.05 0.06 0.10 0.13 0.13 0.10 0.05 0.03 0.02 0.01 0.02 0.02 0.04 0.09 0.16 0.16 0.15 0.17 0.17 0.17 0.17 0.16 0.12 0.08 0.06 0.05 0.05 0.04 0.04 0.05 0.07 0.14 0.25 0.38 0.47 0.51 0.55 0.54
0.00 0.00 0.01 0.03 0.05 0.04 0.05 0.06 0.09 0.08 0.05 0.04 0.04 0.03 0.03 0.04 0.04 0.04 0.05 0.07 0.09 0.09 0.07 0.07 0.06 0.06 0.06 0.05 0.05 0.04 0.04 0.04 0.04 0.05 0.08 0.12 0.17 0.19 0.22 0.31 0.41 0.45 0.43
0.00 0.00 0.00 0.02 0.04 0.04 0.04 0.02 0.03 0.05 0.04 0.03 0.02 0.01 0.02 0.06 0.08 0.06 0.04 0.04 0.05 0.06 0.06 0.05 0.05 0.04 0.03 0.04 0.04 0.04 0.03 0.03 0.03 0.03 0.06 0.12 0.18 0.24 0.25 0.24 0.25 0.29 0.33
0.00 0.00 0.01 0.03 0.05 0.05 0.03 0.03 0.03 0.04 0.03 0.02 0.02 0.01 0.01 0.06 0.07 0.07 0.07 0.05 0.05 0.05 0.04 0.04 0.05 0.05 0.04 0.04 0.04 0.04 0.03 0.03 0.03 0.03 0.04 0.05 0.08 0.13 0.18 0.23 0.25 0.25 0.26
0.00 0.00 0.00 0.02 0.03 0.03 0.03 0.03 0.03 0.04 0.04 0.03 0.02 0.02 0.02 0.04 0.05 0.06 0.07 0.07 0.06 0.06 0.05 0.07 0.07 0.07 0.07 0.08 0.07 0.06 0.05 0.05 0.05 0.05 0.06 0.05 0.05 0.06 0.08 0.11 0.14 0.17 0.20
0.00 0.00 0.01 0.02 0.02 0.02 0.03 0.04 0.04 0.03 0.04 0.03 0.03 0.03 0.04 0.05 0.04 0.04 0.04 0.04 0.03 0.04 0.04 0.05 0.06 0.07 0.08 0.10 0.10 0.10 0.09 0.08 0.06 0.05 0.07 0.09 0.10 0.10 0.10 0.10 0.11 0.13 0.17
0.00 0.00 0.01 0.01 0.02 0.02 0.02 0.02 0.03 0.03 0.03 0.03 0.04 0.03 0.03 0.04 0.04 0.03 0.03 0.03 0.04 0.03 0.03 0.02 0.03 0.04 0.07 0.12 0.13 0.10 0.12 0.11 0.08 0.05 0.04 0.06 0.08 0.09 0.11 0.13 0.16 0.19 0.24
0.00 0.00 0.01 0.01 0.02 0.02 0.02 0.02 0.03 0.03 0.03 0.03 0.03 0.03 0.03 0.03 0.03 0.03 0.03 0.04 0.04 0.03 0.02 0.03 0.04 0.03 0.04 0.09 0.13 0.16 0.13 0.09 0.09 0.09 0.05 0.05 0.07 0.11 0.14 0.17 0.20 0.25 0.28